This is the latest recevied weather packets stored in our database for station/object DB0MW-13. If no packets are shown the sender has not sent any weather packets the latest 10 day(s).
| Time | Temp. | Humidity | Pressure | Rain* | Wind** | Luminosity | Snow |
|---|---|---|---|---|---|---|---|
| 1788440401 | 25.56° C | 45% | 1020.5 hPa | 0 mm | - | - | - |
| 1788439800 | 25.56° C | 44% | 1020.9 hPa | 0 mm | - | - | - |
| 1788438901 | 25.56° C | 42% | 1020.6 hPa | 0 mm | - | - | - |
| 1788438300 | 25° C | 44% | 1020.7 hPa | 0 mm | - | - | - |
| 1788436200 | 23.89° C | 47% | 1020.7 hPa | 0 mm | - | - | - |
| 1788435301 | 23.33° C | 49% | 1020.6 hPa | 0 mm | - | - | - |
| 1788434701 | 23.33° C | 48% | 1021 hPa | 0 mm | - | - | - |
| 1788434401 | 22.78° C | 49% | 1021.1 hPa | 0 mm | - | - | - |
| 1788434101 | 22.78° C | 50% | 1021.2 hPa | 0 mm | - | - | - |
| 1788433801 | 22.78° C | 50% | 1021 hPa | 0 mm | - | - | - |
| 1788433501 | 22.78° C | 52% | 1021.1 hPa | 0 mm | - | - | - |
| 1788433201 | 22.22° C | 52% | 1021.1 hPa | 0 mm | - | - | - |
| 1788432601 | 22.22° C | 52% | 1021.4 hPa | 0 mm | - | - | - |
| 1788432301 | 22.22° C | 52% | 1021.4 hPa | 0 mm | - | - | - |
| 1788432001 | 22.22° C | 53% | 1021.3 hPa | 0 mm | - | - | - |
| 1788431701 | 21.67° C | 52% | 1021.4 hPa | 0 mm | - | - | - |
| 1788431401 | 21.67° C | 53% | 1021.4 hPa | 0 mm | - | - | - |
| 1788431100 | 21.67° C | 53% | 1021.5 hPa | 0 mm | - | - | - |
| 1788430801 | 21.67° C | 53% | 1021.5 hPa | 0 mm | - | - | - |
| 1788430501 | 21.67° C | 53% | 1021.8 hPa | 0 mm | - | - | - |
| 1788430201 | 21.11° C | 53% | 1021.8 hPa | 0 mm | - | - | - |
| 1788429900 | 21.11° C | 54% | 1021.9 hPa | 0 mm | - | - | - |
| 1788429600 | 20.56° C | 58% | 1021.9 hPa | 0 mm | - | - | - |
| 1788429301 | 20.56° C | 58% | 1022.1 hPa | 0 mm | - | - | - |
| 1788429001 | 20.56° C | 60% | 1022.3 hPa | 0 mm | - | - | - |
* Rain latest hour (hover to see other rain measurements)
** Current wind speed in m/s (hover to see current wind gust speed)